Location: Ciserano
(45.5833°N, 9.6000°E)
Time: 12:42:48
(UTC+00:00)

CRYOSAT 2 - Pass Details

Date: 29 November 2020
Orbit: 714 x 724 km, 92.0° (Epoch: 25 January)

Event Time Altitude Azimuth Distance (km) Brightness Sun altitude
Rises 04:25:01 0° 175° (S) 3,106 7.8 -22.9°
Reaches altitude 10° 04:27:17 10° 175° (S) 2,191 7.0 -22.5°
Maximum altitude 04:32:08 86° 264° (W) 726 4.2 -21.7°
Drops below altitude 10° 04:37:03 10° 354° (N) 2,214 6.7 -20.8°
Sets 04:39:21 0° 355° (N) 3,140 7.5 -20.4°
